This is the latest recevied weather packets stored in our database for station/object JS2WAD-13. If no packets are shown the sender has not sent any weather packets the latest 10 day(s).
| Time | Temp. | Humidity | Pressure | Rain* | Wind** | Luminosity | Snow |
|---|---|---|---|---|---|---|---|
| 1777731092 | 20° C | 59% | 904.2 hPa | 0 mm | - | 0 W/m² | - |
| 1777730792 | 20.56° C | 59% | 904.2 hPa | 0 mm | - | 0 W/m² | - |
| 1777730492 | 20.56° C | 60% | 904.2 hPa | 0 mm | - | 0 W/m² | - |
| 1777730192 | 20.56° C | 56% | 904.3 hPa | 0 mm | - | 0 W/m² | - |
| 1777729892 | 20.56° C | 57% | 904.2 hPa | 0 mm | - | 0 W/m² | - |
| 1777729292 | 20.56° C | 57% | 904.2 hPa | 0 mm | - | 0 W/m² | - |
| 1777728993 | 20.56° C | 57% | 904.3 hPa | 0 mm | - | 0 W/m² | - |
| 1777728695 | 20.56° C | 56% | 904.3 hPa | 0 mm | - | 0 W/m² | - |
| 1777728392 | 20.56° C | 56% | 903.9 hPa | 0 mm | - | 0 W/m² | - |
| 1777728092 | 20.56° C | 56% | 903.8 hPa | 0 mm | - | 0 W/m² | - |
| 1777727792 | 20.56° C | 56% | 903.7 hPa | 0 mm | - | 0 W/m² | - |
| 1777727492 | 20.56° C | 56% | 903.7 hPa | 0 mm | - | 0 W/m² | - |
| 1777727192 | 21.11° C | 56% | 903.7 hPa | 0 mm | - | 0 W/m² | - |
| 1777726592 | 21.11° C | 54% | 903.9 hPa | 0 mm | - | 0 W/m² | - |
| 1777725393 | 21.11° C | 52% | 904 hPa | 0 mm | - | 0 W/m² | - |
| 1777725093 | 21.11° C | 51% | 903.9 hPa | 0 mm | - | 0 W/m² | - |
| 1777724793 | 21.11° C | 50% | 903.9 hPa | 0 mm | - | 0 W/m² | - |
| 1777724493 | 21.11° C | 50% | 903.8 hPa | 0 mm | - | 0 W/m² | - |
| 1777724193 | 21.11° C | 52% | 903.7 hPa | 0 mm | - | 0 W/m² | - |
| 1777723893 | 21.11° C | 51% | 903.7 hPa | 0 mm | - | 0 W/m² | - |
| 1777723593 | 21.11° C | 52% | 903.8 hPa | 0 mm | - | 0 W/m² | - |
| 1777723293 | 21.11° C | 52% | 903.8 hPa | 0 mm | - | 0 W/m² | - |
| 1777722693 | 21.11° C | 50% | 903.6 hPa | 0 mm | - | 0 W/m² | - |
| 1777722393 | 21.67° C | 51% | 903.5 hPa | 0 mm | - | 0 W/m² | - |
| 1777722092 | 21.67° C | 49% | 903.6 hPa | 0 mm | - | 0 W/m² | - |
* Rain latest hour (hover to see other rain measurements)
** Current wind speed in m/s (hover to see current wind gust speed)